Weather History for KYKM - October, 2014

Change the Weather History Date:

Tuesday, October 7, 2014

  Actual Average Record
Temperature  
Mean Temperature 68 °F 53 °F  
Max Temperature 86 °F 69 °F 86 °F (1980)
Min Temperature 50 °F 37 °F 25 °F (1974)
Degree Days  
Heating Degree Days 0 12  
Month to date heating degree days 32 78  
Since 1 July heating degree days 108 286  
Cooling Degree Days 3 0  
Month to date cooling degree days 8 0  
Year to date cooling degree days 871 472  
Growing Degree Days 18 (Base 50)    
Moisture  
Dew Point 50 °F    
Average Humidity 58    
Maximum Humidity 86    
Minimum Humidity 30    
Precipitation  
Precipitation 0.00 in 0.02 in 0.40 in (1985)
Month to date precipitation T 0.09  
Year to date precipitation 4.42 5.22  
Snow  
Snow 0.00 in 0.00 in 0.00 in (2002)
Month to date snowfall 0.0 0.0  
Year to date snowfall 19.9 8.6  
Since 1 July snowfall 0.0 0.0  
Snow Depth 0.00 in    
Sea Level Pressure  
Sea Level Pressure 29.86 in    
Wind  
Wind Speed 5 mph (WSW)    
Max Wind Speed 10 mph    
Max Gust Speed 14 mph    
Visibility 10 miles    
Events      
T = Trace of Precipitation, MM = Missing Value Source: NWS Daily Summary

Daily Weather History Graph

Daily Weather History Graph

Search for Another Location

Airport or City:

Trip Planner

Search our weather history database for the weather conditions in past years. The results will help you decide how hot, cold, wet, or windy it might be!

Date:

Astronomy

Oct. 07, 2014 Rise Set
Actual Time 7:08 AM PDT 6:30 PM PDT
Civil Twilight 6:38 AM PDT 7:00 PM PDT
Nautical Twilight 6:03 AM PDT 7:35 PM PDT
Astronomical Twilight 5:28 AM PDT 8:10 PM PDT
Moon 6:09 PM PDT (10/7) 6:09 AM PDT (10/7)
Length of Visible Light 12h 21m
Length of Day
11h 21m
Waxing Gibbous, 99% of the Moon is Illuminated
Oct 7
Waxing Gibbous
Oct 8
Full
Oct 15
Last Quarter
Oct 23
New
Oct 30
First Quarter

Hourly Weather History & Observations

Time (PDT) Temp. Heat Index Dew Point Humidity Pressure Visibility Wind Dir Wind Speed Gust Speed Precip Events Conditions
12:53 AM 60.1 °F - 50.0 °F 69% 29.90 in 10.0 mi WSW 5.8 mph - N/A   Clear
1:53 AM 61.0 °F - 51.1 °F 70% 29.90 in 10.0 mi WSW 6.9 mph - N/A   Clear
2:53 AM 57.0 °F - 48.9 °F 74% 29.90 in 10.0 mi WSW 6.9 mph - N/A   Clear
3:53 AM 53.1 °F - 48.0 °F 83% 29.90 in 10.0 mi Variable 4.6 mph - N/A   Clear
4:53 AM 55.9 °F - 46.9 °F 72% 29.90 in 10.0 mi WSW 8.1 mph - N/A   Clear
5:53 AM 51.1 °F - 46.9 °F 86% 29.91 in 10.0 mi WNW 6.9 mph - N/A   Clear
6:53 AM 50.0 °F - 46.0 °F 86% 29.92 in 10.0 mi West 9.2 mph - N/A   Clear
7:53 AM 54.0 °F - 48.0 °F 80% 29.93 in 10.0 mi West 4.6 mph - N/A   Clear
8:53 AM 63.0 °F - 48.9 °F 60% 29.93 in 10.0 mi WSW 4.6 mph - N/A   Clear
9:53 AM 69.1 °F - 51.1 °F 53% 29.92 in 10.0 mi Variable 3.5 mph - N/A   Clear
10:53 AM 73.0 °F - 52.0 °F 48% 29.90 in 10.0 mi Calm Calm - N/A   Clear
11:53 AM 78.1 °F - 52.0 °F 40% 29.89 in 10.0 mi Variable 3.5 mph - N/A   Clear
12:53 PM 81.0 °F - 51.1 °F 35% 29.87 in 10.0 mi North 4.6 mph - N/A   Clear
1:53 PM 82.4 °F - 51.8 °F 35% 29.86 in 10.0 mi East 8.1 mph - N/A   Clear
2:53 PM 86.0 °F - 51.8 °F 31% 29.83 in 10.0 mi East 8.1 mph - N/A   Clear
3:53 PM 84.9 °F 83.2 °F 53.1 °F 33% 29.80 in 10.0 mi SSE 5.8 mph - N/A   Clear
4:53 PM 84.0 °F - 51.1 °F 32% 29.78 in 10.0 mi South 5.8 mph - N/A   Clear
5:53 PM 81.0 °F 80.5 °F 54.0 °F 39% 29.79 in 10.0 mi Calm Calm - N/A   Clear
6:53 PM 69.1 °F - 54.0 °F 58% 29.80 in 10.0 mi WNW 4.6 mph - N/A   Clear
7:53 PM 68.0 °F - 46.9 °F 47% 29.82 in 10.0 mi West 4.6 mph - N/A   Clear
8:53 PM 61.0 °F - 46.9 °F 60% 29.83 in 10.0 mi NNW 3.5 mph - N/A   Clear
9:53 PM 61.0 °F - 48.9 °F 64% 29.83 in 10.0 mi West 4.6 mph - N/A   Clear
10:53 PM 64.0 °F - 52.0 °F 65% 29.83 in 10.0 mi WSW 8.1 mph - N/A   Clear
11:53 PM 64.0 °F - 52.0 °F 65% 29.85 in 10.0 mi WSW 5.8 mph - N/A   Clear